[[{"header":{"parameterUnit":"m.s-1","parameterCategory":1,"la1":30.2991,"la2":30.254,"lo1":-89.0895,"lo2":-89.0444,"dy":0.0017,"dx":0.0017,"nx":28,"ny":28,"refTime":"2025-07-14T03:00:00:Z","depth":0,"parameterNumber":2,"parameterNumberName":"U-component_of_WINDS"},"data":[0,0,0,0,0,0,0,0,0,0,0,0,0,0,0,0,0,0,0,0,0,0,0,0,0,0,0,0,0,0,0,0,0,0,0,0,0,0,0,0,0,0,0,0,0,0,0,0,0,0,0,0,0,0,0,0,0,0,2.1571,2.1572,0,2.1651,2.1652,2.1653,2.1651,2.165,2.1649,2.1647,2.1729,2.1732,2.1735,0,0,0,0,0,0,0,0,0,0,0,0,0,2.1414,2.1417,2.1571,2.1572,2.1573,2.1651,2.1652,2.1653,2.1651,2.165,2.1648,2.1647,2.1728,2.1731,2.1735,0,0,0,0,0,0,0,0,0,0,0,0,0,2.1487,2.1418,2.1571,2.1581,2.1583,2.165,2.1652,2.1653,2.1651,2.165,2.1648,2.1646,2.1726,2.1731,2.1736,2.1798,0,0,2.175,2.1752,0,0,0,0,0,0,0,0,2.1483,2.1493,2.1579,2.1581,2.1583,2.1639,2.1626,2.1702,2.1652,2.1625,2.1647,2.1646,2.17,2.1707,2.1725,2.1801,2.1805,2.1751,2.1754,2.1756,2.1757,0,0,0,0,0,0,0,2.1478,2.1489,2.1602,2.158,2.1582,2.1581,2.159,2.1641,2.1671,2.1627,2.1627,2.1637,2.1701,2.1721,2.1727,2.1806,2.175,2.1755,2.1758,2.176,2.1935,2.1936,0,0,0,0,0,0,2.1471,2.1485,2.16,2.1605,2.1528,2.1585,2.1595,2.1623,2.167,2.1676,2.1638,2.1637,2.1714,2.1722,2.173,2.1804,2.1756,2.176,2.1763,2.1933,2.1935,2.1937,0,0,0,0,0,0,2.1467,2.1481,2.1597,2.1545,2.156,2.159,2.1621,2.1625,2.1645,2.1679,2.1684,2.1653,2.1713,2.1724,2.178,2.1807,2.1762,2.1766,2.1931,2.1934,2.1936,2.1954,0,0,0,0,0,0,2.1463,2.148,2.1504,2.1546,2.1562,2.1646,2.1623,2.1628,2.1653,2.1652,2.1694,2.1699,2.1712,2.1773,2.1785,2.1813,2.177,2.1928,2.1932,2.1935,2.1951,2.1957,2.1962,0,0,0,0,0,2.1457,2.1507,2.1506,2.152,2.1594,2.1648,2.1657,2.1671,2.1656,2.168,2.1701,2.1698,2.1803,2.1779,2.1793,2.1822,2.1927,2.1931,2.1935,2.1949,2.1956,2.1962,0,0,0,0,0,0,2.1468,2.1512,2.1512,2.1576,2.1608,2.1647,2.1679,2.1679,2.1716,2.1713,2.1729,2.1738,2.1795,2.1814,2.1787,2.1884,2.1863,2.1869,2.1869,2.1876,2.1881,2.1875,2.1774,0,0,0,0,0,2.1478,2.1518,2.1555,2.1608,2.1624,2.1649,2.1673,2.168,2.1714,2.1728,2.1753,2.1786,2.1826,2.1852,2.1891,2.1954,2.1962,2.1981,2.1986,2.1991,2.1996,2.2029,2.2037,2.195,2.195,2.195,0,0,2.1498,2.1528,2.1552,2.1611,2.1637,2.1677,2.166,2.1705,2.1735,2.1735,2.179,2.1809,2.1847,2.1906,2.1934,2.1925,2.2022,2.1996,2.1999,2.2002,2.2034,2.2042,2.205,2.1953,2.1953,2.1952,0,0,2.1557,2.1583,2.163,2.1656,2.1695,2.1711,2.1722,2.1761,2.1774,2.1829,2.1829,2.1865,2.1934,2.196,2.1983,2.2049,2.2047,2.2061,2.2089,2.2121,2.2128,2.2134,2.2156,2.2164,2.2067,2.2067,2.2067,0,2.1577,2.1639,2.1653,2.1698,2.1723,2.1724,2.177,2.1795,2.1845,2.1861,2.185,2.1935,2.1961,2.2026,2.2042,2.206,2.2072,2.2056,2.2126,2.2132,2.2138,2.2159,2.2168,2.2068,2.2068,2.2068,2.2068,0,2.1662,2.1705,2.1737,2.1785,2.1814,2.1859,2.1879,2.1906,2.1911,2.1927,2.1982,2.2013,2.2057,2.2073,2.2079,2.2138,2.2131,2.2123,2.2102,2.2148,2.2168,2.2176,2.207,2.2069,2.2069,2.2069,0,0,2.1729,2.1783,2.1795,2.1816,2.1858,2.1892,2.1936,2.1979,2.2001,2.2035,2.2072,2.2129,2.2121,2.2147,2.2155,2.2183,2.2231,2.2171,2.2172,2.218,2.2297,2.2302,2.2312,2.2231,2.2232,2.2234,2.2294,0,2.1791,2.187,2.1883,2.1952,2.1991,2.1993,2.2031,2.2061,2.2077,2.2112,2.213,2.217,2.2157,2.2172,2.22,2.222,2.2255,2.2216,2.2264,2.2265,2.2253,2.2322,2.2329,2.2384,2.2302,2.2303,2.2304,0,2.1874,2.1909,2.1982,2.2018,2.2035,2.2069,2.2108,2.2142,2.2175,2.2185,2.2212,2.2217,2.2262,2.2239,2.23,2.2273,2.2293,2.2306,2.2308,2.2313,2.2287,2.2327,2.2402,2.241,2.2317,2.2316,2.2315,0,2.1914,2.198,2.2031,2.2049,2.2093,2.2117,2.2136,2.2168,2.2192,2.2226,2.2242,2.2281,2.2302,2.2332,2.2347,2.2329,2.2406,2.2385,2.2414,2.2414,2.243,2.2429,2.2508,2.2445,2.2445,2.2445,2.2444,0,2.198,2.2025,2.205,2.2081,2.213,2.2145,2.2192,2.2211,2.2239,2.2273,2.2277,2.2309,2.2327,2.2361,2.2373,2.242,2.243,2.2438,2.2441,2.2438,2.2436,2.245,2.2446,2.2447,2.2446,2.2446,2.2446,0,2.2033,2.2052,2.2108,2.2144,2.2154,2.2189,2.2219,2.2249,2.2265,2.2309,2.2319,2.2344,2.2385,2.2402,2.2452,2.246,2.2514,2.2514,2.2503,2.2503,2.2531,2.2527,2.2621,2.2633,2.2563,2.2564,2.2565,0,2.2074,2.2108,2.2147,2.2171,2.219,2.2228,2.2253,2.2268,2.2293,2.2333,2.2358,2.2398,2.2431,2.2496,2.2517,2.2555,2.2555,2.2585,2.2561,2.2556,2.2554,2.2551,2.2554,2.259,2.259,2.2591,2.2591,0,2.2144,2.2151,2.2187,2.2225,2.2255,2.2286,2.2316,2.2335,2.2354,2.2382,2.2424,2.2449,2.25,2.2539,2.2578,2.2597,2.2597,2.2599,2.2607,2.2604,2.2595,2.2599,2.2513,2.2597,2.2596,2.2596,2.2595,2.2595,2.2191,2.2221,2.2253,2.2292,2.2316,2.2344,2.2373,2.2392,2.2427,2.2469,2.2476,2.252,2.255,2.2602,2.2622,2.2656,2.2649,2.2661,2.2664,2.2667,2.2668,2.2591,2.2663,2.2663,2.2663,2.2663,2.2663,0,2.226,2.228,2.2316,2.2358,2.2388,2.2386,2.2419,2.2444,2.2483,2.2512,2.2544,2.259,2.2628,2.2653,2.2691,2.2713,2.2714,2.2722,2.272,2.2724,2.2673,2.2661,2.2721,2.2721,2.2721,2.2721,2.2721,2.2721,2.2299,2.2348,2.2359,2.242,2.244,2.2482,2.2501,2.2526,2.2549,2.2601,2.2633,2.2648,2.2675,2.2715,2.2749,2.2755,2.2768,2.2777,2.2782,2.2734,2.2728,2.2722,2.2711,2.278,2.278,2.283,2.2831,2.2831]},{"header":{"parameterUnit":"m.s-1","parameterCategory":1,"la1":30.2991,"la2":30.254,"lo1":-89.0895,"lo2":-89.0444,"dy":0.0017,"dx":0.0017,"nx":28,"ny":28,"refTime":"2025-07-14T03:00:00:Z","depth":0,"parameterNumber":3,"parameterNumberName":"V-component_of_WINDS"},"data":[0,0,0,0,0,0,0,0,0,0,0,0,0,0,0,0,0,0,0,0,0,0,0,0,0,0,0,0,0,0,0,0,0,0,0,0,0,0,0,0,0,0,0,0,0,0,0,0,0,0,0,0,0,0,0,0,0,0,2.7487,2.7486,0,2.7411,2.741,2.7409,2.7326,2.7324,2.7323,2.7322,2.7242,2.7241,2.724,0,0,0,0,0,0,0,0,0,0,0,0,0,2.7556,2.7556,2.7487,2.7486,2.7485,2.7411,2.741,2.7409,2.7326,2.7324,2.7323,2.7322,2.7242,2.7241,2.7239,0,0,0,0,0,0,0,0,0,0,0,0,0,2.7508,2.7555,2.7487,2.7434,2.7429,2.7412,2.741,2.7409,2.7326,2.7324,2.7323,2.7321,2.7242,2.7241,2.7239,2.7266,0,0,2.7235,2.7234,0,0,0,0,0,0,0,0,2.7511,2.7506,2.7443,2.7438,2.7432,2.7376,2.7405,2.7361,2.7327,2.7365,2.7322,2.732,2.7288,2.7282,2.7272,2.7262,2.7259,2.7234,2.7234,2.7233,2.7232,0,0,0,0,0,0,0,2.7514,2.7508,2.7457,2.7442,2.7435,2.7414,2.7405,2.7396,2.7337,2.7362,2.7355,2.7348,2.7284,2.7274,2.7269,2.7258,2.7234,2.7233,2.7232,2.7232,2.7267,2.7269,0,0,0,0,0,0,2.7526,2.7512,2.7459,2.7454,2.7468,2.7414,2.7404,2.7396,2.7337,2.7327,2.7349,2.7344,2.7277,2.7271,2.7266,2.7294,2.7233,2.7231,2.7231,2.7265,2.7267,2.7269,0,0,0,0,0,0,2.7528,2.7522,2.7462,2.7481,2.7472,2.7415,2.7406,2.7395,2.7385,2.7328,2.7317,2.735,2.7275,2.7268,2.7267,2.729,2.7231,2.7229,2.7263,2.7266,2.7268,2.735,0,0,0,0,0,0,2.753,2.7523,2.7533,2.7482,2.7471,2.7465,2.7407,2.7395,2.7383,2.7375,2.7325,2.7315,2.7273,2.727,2.7266,2.7287,2.7228,2.7261,2.7264,2.7267,2.7345,2.7356,2.7364,0,0,0,0,0,2.7533,2.7559,2.7534,2.7528,2.7483,2.7467,2.7461,2.7413,2.7385,2.7394,2.7358,2.7317,2.7289,2.7271,2.7265,2.7286,2.7259,2.7263,2.7267,2.7341,2.7354,2.7364,0,0,0,0,0,0,2.7613,2.7551,2.7523,2.7533,2.7506,2.7453,2.7463,2.7428,2.7407,2.74,2.7341,2.733,2.7336,2.7311,2.7292,2.7309,2.7268,2.7271,2.7326,2.7337,2.7347,2.7352,2.7227,0,0,0,0,0,2.7632,2.7625,2.7571,2.7585,2.7573,2.7521,2.7512,2.7478,2.7446,2.7434,2.7398,2.7368,2.7353,2.7343,2.7326,2.7341,2.7329,2.7353,2.7363,2.7371,2.7374,2.7381,2.7391,2.7283,2.7283,2.7283,0,0,2.767,2.7636,2.7635,2.76,2.7575,2.7568,2.7511,2.7506,2.7501,2.7433,2.743,2.7403,2.7366,2.7373,2.7375,2.7352,2.7402,2.7376,2.7383,2.7382,2.7386,2.7397,2.7406,2.7286,2.7285,2.7285,0,0,2.7737,2.7711,2.772,2.7696,2.766,2.7625,2.7627,2.758,2.7559,2.7556,2.7505,2.7497,2.7471,2.7447,2.7432,2.7491,2.7453,2.7487,2.7537,2.7544,2.7552,2.756,2.7581,2.7589,2.7491,2.7491,2.7491,0,2.779,2.7779,2.7729,2.7727,2.7714,2.7654,2.7662,2.7641,2.76,2.7592,2.7568,2.7535,2.7506,2.7507,2.7522,2.7511,2.7512,2.7492,2.7555,2.7562,2.7568,2.7588,2.7596,2.7495,2.7495,2.7494,2.7494,0,2.7845,2.7838,2.785,2.7813,2.7801,2.7804,2.7755,2.7748,2.7715,2.7683,2.768,2.7643,2.7618,2.7616,2.7583,2.7612,2.76,2.7567,2.7523,2.7584,2.7601,2.7608,2.7502,2.75,2.7499,2.7498,0,0,2.7959,2.7896,2.7901,2.7884,2.784,2.7833,2.7834,2.781,2.7806,2.778,2.7779,2.7759,2.7729,2.7711,2.7675,2.7682,2.7732,2.7647,2.7645,2.7664,2.7762,2.7788,2.7797,2.7706,2.7707,2.7708,2.7765,0,2.8018,2.8017,2.7973,2.7984,2.7977,2.792,2.7921,2.7894,2.7864,2.7853,2.782,2.7807,2.7767,2.7757,2.776,2.7725,2.775,2.772,2.7704,2.7704,2.7715,2.7806,2.7833,2.7888,2.7772,2.7773,2.7774,0,2.8086,2.8066,2.8077,2.8034,2.8029,2.8031,2.8006,2.7996,2.7964,2.7942,2.7924,2.7883,2.788,2.7841,2.7836,2.7816,2.7807,2.7789,2.7789,2.7786,2.7742,2.7805,2.7905,2.7913,2.7784,2.7783,2.7782,0,2.8169,2.8144,2.8148,2.8135,2.8084,2.8086,2.8065,2.8031,2.802,2.7998,2.799,2.7968,2.7955,2.7939,2.7893,2.7868,2.7894,2.785,2.7875,2.7876,2.7882,2.7883,2.7982,2.7877,2.7877,2.7877,2.7877,0,2.8239,2.8248,2.8184,2.8186,2.8195,2.8144,2.8153,2.8126,2.8097,2.8092,2.8042,2.8038,2.7979,2.7969,2.7933,2.7935,2.7929,2.7911,2.7901,2.7915,2.7918,2.7908,2.7903,2.7879,2.7878,2.7878,2.7878,0,2.8332,2.829,2.829,2.8242,2.8231,2.8239,2.8198,2.8197,2.8165,2.816,2.8156,2.8105,2.8091,2.8044,2.8017,2.7993,2.8006,2.7988,2.8017,2.8011,2.8039,2.8037,2.8136,2.8146,2.8035,2.8036,2.8037,0,2.838,2.8386,2.8339,2.8333,2.8315,2.8305,2.8294,2.8244,2.8235,2.8199,2.8203,2.8185,2.8168,2.8147,2.8107,2.8087,2.8068,2.8104,2.8064,2.8079,2.8068,2.8069,2.8069,2.8112,2.8114,2.8115,2.8116,0,2.8469,2.8448,2.8434,2.8414,2.8403,2.8384,2.8362,2.836,2.8304,2.8296,2.8281,2.8268,2.8242,2.8224,2.8198,2.8175,2.8136,2.8129,2.8134,2.8148,2.8165,2.8156,2.8041,2.8127,2.8126,2.8125,2.8124,2.8124,2.854,2.8543,2.8511,2.8498,2.8477,2.8458,2.8456,2.8424,2.8412,2.8388,2.8359,2.8348,2.8315,2.8276,2.8256,2.8246,2.8225,2.8232,2.8234,2.8236,2.8243,2.8167,2.8241,2.8241,2.824,2.824,2.824,0,2.8627,2.8604,2.8593,2.8564,2.8554,2.8521,2.8495,2.8488,2.848,2.8454,2.8439,2.8422,2.8405,2.8365,2.8344,2.8344,2.8326,2.834,2.8339,2.8335,2.8263,2.8261,2.8355,2.8355,2.8355,2.8355,2.8355,2.8355,2.867,2.8674,2.865,2.8642,2.8618,2.8609,2.8597,2.8579,2.8558,2.8543,2.8529,2.8504,2.8472,2.8448,2.8431,2.842,2.8414,2.8435,2.8417,2.8351,2.834,2.8329,2.8327,2.8434,2.8434,2.849,2.8491,2.8491]}]]